Showing default

BILSAT 1, 27943

Orbit data source: Space-Track

BILSAT 1, 27943 is a payload satellite owned by TUBITAK-BILTEN (TR) in SSO that was launched on Sat, 27 Sep 2003 UTC via a KOSMOS 11K65M launch vehicle from the Plesetsk Missile And Space Complex (PKMTR). Payload-class satellites include a variety of spacecraft equipped with specific instruments for various scientific and technological missions. These include communications satellites like Starlink; space stations such as the ISS; scientific satellites like the Hubble; Earth observation satellites from companies like Planet Labs, Umbra, and HawkEye 360; GPS; miniature CubeSats for education and research; and military/defense satellites.

Loading next visibility...
Identifier
27943, 2003-042E
Orbit
SSO
Country
Flag of UnknownUnknown / TURK
Related business
Manufacturer
SSTL
Mission
Civil Imaging
Bus & Motor
SSTL-100, Unknown motor
Mass
100 kg wet, 100 kg dry
Launch date (UTC)
2003-09-27 (22 years ago)
Launch vehicle
KOSMOS 11K65M
Launch site
Plesetsk Missile And Space Complex (PKMTR)
Object type
Payload
Rocket body
Debris
Shape & HBR
Box + 1 Arm, 3.3 m
Radar Cross Section
0.540 m², Medium (>0.1 m² and < 1m²)

Expand to show TLE details & history
Last TLE update: 11 hours ago

TLE from 11 hours ago
0 BILSAT 1
1 27943U 03042E   25292.01144846  .00000820  00000-0  15616-3 0  9994
2 27943  98.3745  91.8077 0011489  32.8005 327.3909 14.66785580178768
Epoch: 2025-10-19T00:16Z
TLE epoch observation values (Epoch: 2025-10-19T00:16:29.146Z)
Latitude
-0.00008°
Longitude
59.95203°
Altitude
667.516 km
Speed
7.527 km/s
True Right ascension
06h 07m 13s
True Declination
0° 00' 00"
Sunlit
Object was in daylight at epoch
Visualization orbit readout
Latitude
Unknown
Longitude
Unknown
Altitude
Unknown
Speed
Unknown
Apparent Right ascension
Unknown
Apparent Declination
Unknown
Sunlit
N/A
Visualization observer readout
Local Sidereal Time
06:08:12
Azimuth
Unknown
Elevation
Unknown
Doppler factor
Unknown
Orbital elements
Apogee altitude
676.525 km
Perigee altitude
660.333 km
Semi-major axis
7,046.566 km
Eccentricity
0.00115
Inclination
98.3745°
RAAN
91.8077°
Arg. of periapsis
32.8005°
True anomaly
327.31987°
Mean anomaly
327.3909°
Eccentric anomaly
327.35539°
Mean motion
3.66925 °/min
Orbital period
98.11 mins
BSTAR
0.00015616
Loading maneuver chart data...
Computing Atmospheric mass density...
Loading historical data...
Loading historical data...
Loading historical data...
Loading historical data...
Loading historical data...
Loading historical data...
Loading historical data...

Documentation

Showing up to 5 results
|